This demonstration page uses our WeatherBlox Daily Observations layout. Learn more.

Left ArrowRight Arrow

Hourly Observations for April 7, 2016

Temp ( °F °C ) Dew Point ( °F °C ) Humidity (%) Winds ( mph kmh ) Pressure ( in mb ) Visibility ( mi km ) Precip ( " mm )
12:51 am 00:51 Clear 60 15.6 9 -12.8 13 13 Calm 29.94 1014 10 16 0.00 0.00
1:51 am 01:51 Clear 62 16.7 8 -13.3 12 12 Calm 29.93 1013 10 16 0.00 0.00
2:51 am 02:51 Clear 59 15 9 -12.8 13 13 N 5 7 29.91 1013 10 16 0.00 0.00
3:51 am 03:51 Clear 56 13.3 10 -12.2 16 16 Calm 29.89 1012 10 16 0.00 0.00
4:51 am 04:51 Clear 57 13.9 11 -11.7 16 16 W 5 7 29.88 1012 10 16 0.00 0.00
5:51 am 05:51 Clear 58 14.4 10 -12.2 15 15 Calm 29.89 1012 10 16 0.00 0.00
6:51 am 06:51 Sunny 60 15.6 12 -11.1 15 15 Calm 29.91 1013 10 16 0.00 0.00
7:51 am 07:51 Sunny 66 18.9 13 -10.6 13 13 SE 9 15 29.90 1012 10 16 0.00 0.00
8:51 am 08:51 Sunny 71 21.7 9 -12.8 9 9 SE 12 19 29.87 1012 10 16 0.00 0.00
9:51 am 09:51 Sunny 76 24.4 8 -13.3 7 7 ESE 10 17 29.88 1012 10 16 0.00 0.00
10:51 am 10:51 Sunny 76 24.4 11 -11.7 8 8 SSE 10 17 29.88 1012 10 16 0.00 0.00
11:51 am 11:51 Sunny 78 25.6 9 -12.8 7 7 SE 7 11 29.86 1011 10 16 0.00 0.00
12:51 pm 12:51 Sunny 79 26.1 8 -13.3 6 6 SSE 5 7 29.84 1010 10 16 0.00 0.00
1:51 pm 13:51 Sunny 80 26.7 9 -12.8 6 6 ESE 5 7 29.82 1010 10 16 0.00 0.00
2:51 pm 14:51 Sunny 83 28.3 9 -12.8 6 6 ENE 7 11 29.78 1009 10 16 0.00 0.00
3:51 pm 15:51 Sunny 84 28.9 13 -10.6 7 7 ESE 8 13 29.77 1008 10 16 0.00 0.00
4:51 pm 16:51 Sunny 81 27.2 25 -3.9 13 13 SSE 21 33 29.77 1008 10 16 0.00 0.00
5:05 pm 17:05 Sunny 82 27.8 23 -5 11 11 ESE 21 33 29.68 1005 9 14 0.00 0.00
5:51 pm 17:51 Mostly Cloudy 79 26.1 29 -1.7 16 16 SE 10 17 29.79 1009 10 16 0.00 0.00
6:51 pm 18:51 Mostly Cloudy 77 25 29 -1.7 17 17 ENE 6 9 29.80 1009 10 16 0.00 0.00
7:51 pm 19:51 Mostly Cloudy 75 23.9 30 -1.1 19 19 S 7 11 29.81 1010 10 16 0.00 0.00
8:51 pm 20:51 Mostly Clear 73 22.8 35 1.7 25 25 S 8 13 29.82 1010 10 16 0.00 0.00
9:51 pm 21:51 Cloudy 73 22.8 39 3.9 29 29 ESE 16 26 29.81 1009 10 16 0.00 0.00
10:51 pm 22:51 Cloudy 70 21.1 43 6.1 38 38 ENE 13 20 29.82 1010 10 16 0.00 0.03
11:51 pm 23:51 Mostly Cloudy 70 21.1 42 5.6 37 37 E 13 20 29.82 1010 10 16 0.00 0.00

Powered by AerisWeather